Dewpoint
60 60 61 60 60 60 60 60 60 59 59 59 60 59 59 59 57 48 31 33 36 48 43 43 37 38 37 38 36 30 22 21 23 26 21 24 21 24 27 25 27 28 29 33 40
60 60 60 61 61 60 60 60 60 59 58 59 60 59 59 58 45 33 33 46 52 49 38 32 26 30 28 35 35 26 18 16 19 18 16 22 23 23 23 19 20 22 25 31 36
60 60 60 60 60 60 60 60 59 59 58 59 59 59 58 56 36 27 41 54 53 45 40 32 28 27 25 30 31 30 17 23 21 19 24 24 25 27 22 19 23 23 24 25 28
60 60 60 60 60 60 60 60 59 58 58 59 59 58 57 47 23 31 51 56 52 41 31 26 25 23 23 21 28 23 25 27 28 29 28 24 26 23 24 22 25 25 25 25 25
60 60 60 60 60 60 60 60 59 58 57 58 58 57 45 31 27 46 58 56 42 32 26 25 24 24 20 21 23 23 22 23 25 26 26 26 23 23 23 24 22 24 27 28 28
60 61 60 60 60 60 60 59 58 57 57 58 57 57 40 26 30 47 46 37 31 27 27 26 25 26 24 23 22 21 22 21 23 22 23 21 22 24 21 22 23 26 28 29 30
60 60 60 60 60 59 58 57 57 57 57 56 57 53 34 28 32 42 35 29 32 28 27 28 27 25 25 22 24 24 19 18 21 21 21 23 18 20 23 21 23 24 27 29 31
60 60 60 60 59 58 57 57 56 56 55 56 56 48 28 30 34 35 31 29 30 30 30 30 29 28 25 26 22 19 19 15 19 18 22 22 9 18 22 20 23 24 25 27 29
60 60 60 59 58 57 56 56 55 55 56 56 47 37 26 35 29 31 30 28 29 29 29 29 28 26 26 19 15 18 9 15 15 17 17 19 13 19 22 21 22 23 24 25 27
59 59 59 58 57 56 56 54 53 53 52 51 44 31 29 27 29 30 30 29 28 28 27 28 26 22 21 17 6 9 12 15 14 16 17 16 16 18 22 22 22 22 23 24 27
59 59 58 58 56 56 52 46 40 36 44 30 30 28 25 28 29 28 29 27 27 26 24 26 20 15 13 17 18 17 17 16 16 17 20 19 18 20 21 22 22 21 22 25 28
59 59 57 57 56 54 48 37 32 31 30 35 32 31 30 28 25 27 28 26 26 24 23 21 16 16 20 20 20 20 18 15 16 17 19 18 18 20 21 22 23 22 23 26 28
59 58 57 56 54 52 43 37 40 37 28 28 32 29 29 26 24 25 27 26 24 23 21 15 17 22 21 21 20 18 16 14 14 18 20 19 18 19 21 23 25 24 25 27 28
58 57 56 54 47 42 39 39 39 37 22 20 26 30 29 27 24 25 27 24 22 19 21 19 21 20 19 18 19 13 17 16 17 17 11 19 6 18 19 21 23 23 24 27 30
57 56 54 51 39 38 35 39 39 27 12 19 26 29 28 25 25 24 26 23 21 19 20 15 18 19 18 17 19 18 20 19 20 17 17 17 12 15 19 19 21 22 25 29 31
55 55 54 50 44 41 42 37 29 19 11 20 25 25 25 24 24 24 24 25 23 20 20 19 21 20 19 20 19 22 20 21 22 19 13 14 15 15 17 17 20 22 25 28 30
55 55 52 47 35 41 35 30 20 14 18 20 22 24 24 22 23 22 22 21 20 18 18 20 20 21 22 19 22 20 18 11 7 14 9 18 16 15 17 19 20 22 23 27 29
54 54 51 43 43 40 33 25 14 15 15 23 24 24 22 23 23 22 22 20 22 19 17 16 12 20 22 19 18 19 18 9 2 3 7 16 13 13 17 20 20 23 24 26 28
54 52 46 44 45 37 31 21 13 17 17 23 23 21 21 22 22 22 20 19 20 20 15 17 16 22 21 21 21 19 16 15 13 15 12 11 13 16 20 22 21 22 24 26 28
47 44 41 45 41 36 30 21 22 20 24 24 19 20 18 20 19 21 20 21 21 22 21 19 15 21 21 21 21 20 19 15 15 9 7 10 12 10 19 19 20 23 25 27 28
42 35 44 44 39 36 30 25 26 25 25 24 23 21 20 21 19 19 19 22 23 23 22 20 17 18 21 20 19 19 17 17 16 14 9 7 8 16 18 20 22 23 26 27 30
40 31 47 41 35 36 33 30 28 26 28 26 25 23 21 22 21 21 20 21 24 24 20 20 19 16 17 20 20 20 18 17 11 12 15 14 10 17 19 22 23 24 26 30 31
37 43 46 40 30 33 32 31 29 25 25 24 24 24 22 23 21 23 22 25 26 24 22 21 19 15 14 18 20 18 18 18 18 17 13 11 9 20 20 23 24 25 28 31 31
42 38 41 39 37 32 31 31 29 29 24 23 23 24 23 20 22 21 21 27 26 24 25 23 20 14 7 10 18 18 19 18 17 14 13 14 12 17 19 23 24 25 29 30 30
41 37 39 34 36 32 32 30 29 27 28 26 24 23 21 19 21 20 23 26 28 31 25 23 18 18 17 15 18 17 18 19 17 17 15 13 14 16 19 22 24 26 27 30 28
39 38 40 37 36 31 32 29 29 29 27 26 25 24 23 20 19 19 22 24 22 28 25 26 20 21 20 24 21 19 20 20 19 18 18 18 18 21 22 22 23 25 30 29 28
44 43 39 38 35 30 30 29 28 28 29 28 26 25 25 24 25 24 26 26 26 25 24 25 24 22 16 26 25 22 23 23 22 22 21 20 22 26 26 26 24 26 29 27 30
Wind_Speed
10 10 8 6 6 7 6 5 10 7 10 13 14 14 14 14 15 3 7 1 4 11 6 7 4 3 3 3 2 1 6 7 7 5 3 4 5 2 3 9 6 5 9 4 2
10 10 8 8 8 7 7 5 9 7 9 12 14 14 14 14 9 8 1 6 10 11 7 5 4 2 3 3 2 3 5 4 3 5 4 6 7 8 6 9 11 8 4 3 3
10 10 8 7 7 8 8 7 6 9 9 11 14 14 12 10 6 4 4 10 10 8 3 4 5 1 2 1 2 2 5 2 4 8 7 7 8 3 7 8 1 10 12 7 6
11 10 10 8 9 10 8 7 6 9 8 11 14 14 14 3 6 3 5 11 9 7 6 7 3 1 1 2 2 5 6 5 3 2 3 6 4 8 9 6 11 7 8 10 10
12 9 10 11 11 8 8 8 6 8 8 11 13 13 5 5 6 3 10 10 9 6 5 4 2 2 1 1 3 7 5 3 6 8 9 8 11 9 6 4 7 4 5 6 7
12 11 12 12 12 9 7 7 7 6 8 10 11 13 4 8 2 7 9 8 6 6 5 4 2 3 1 3 5 1 5 10 7 9 6 5 2 2 3 6 4 6 9 9 10
13 12 11 11 11 7 5 7 7 6 8 9 9 4 5 8 2 7 7 3 4 4 5 3 5 4 4 2 0 3 9 7 4 0 2 3 5 6 4 3 6 9 11 12 12
13 12 11 11 12 8 6 4 5 9 8 8 6 3 7 2 2 7 7 4 5 5 6 5 4 4 2 3 1 4 4 4 4 2 1 2 4 8 4 5 5 7 10 12 15
12 11 10 12 12 5 2 4 6 10 6 5 3 4 5 4 5 8 7 7 8 7 7 6 3 2 4 4 5 4 5 4 2 2 1 3 6 2 4 4 5 6 8 10 15
11 11 11 12 11 4 1 2 3 6 2 3 3 4 8 6 5 6 4 12 4 10 5 2 2 6 5 7 6 2 5 4 6 1 5 10 14 7 6 7 10 8 8 10 14
12 12 12 11 7 5 6 2 3 4 6 11 8 5 1 4 4 4 6 9 7 6 9 2 8 11 6 7 4 3 4 10 6 2 3 4 10 8 1 15 14 10 10 11 14
13 13 12 8 6 7 3 6 7 1 7 23 10 11 3 2 4 7 9 11 9 12 7 5 14 7 2 5 7 6 6 11 7 3 4 4 7 3 10 11 11 11 11 12 14
14 13 11 10 8 7 8 14 2 3 6 5 14 11 6 8 6 14 14 8 8 11 12 13 1 6 6 7 9 8 10 8 8 2 3 6 4 8 6 7 7 6 8 9 12
15 15 15 16 6 7 9 13 11 3 6 7 8 6 8 9 7 1 11 5 4 11 8 9 2 7 7 9 11 11 5 7 5 4 5 2 2 12 14 12 9 10 10 11 11
15 16 19 19 5 9 3 10 10 2 6 6 5 3 5 13 9 4 1 3 11 10 7 3 7 7 6 3 11 2 6 2 4 7 5 5 6 11 15 17 17 14 13 11 10
16 17 18 10 2 5 6 11 5 5 8 4 4 7 11 5 3 4 6 4 3 6 3 5 0 3 2 4 4 11 3 2 2 4 7 3 5 10 18 23 21 16 14 13 12
17 19 15 10 4 6 9 9 7 8 2 5 5 7 14 8 6 7 13 14 12 9 16 8 13 3 3 5 5 5 4 4 5 6 2 2 4 5 13 9 21 21 18 15 13
17 19 8 4 1 9 6 10 9 5 6 3 4 9 10 10 5 6 11 13 11 7 3 12 6 10 6 8 2 11 5 6 4 3 0 1 6 1 4 3 6 14 17 14 13
20 9 4 4 4 6 16 17 10 5 5 10 5 6 7 5 4 8 11 10 12 17 9 8 4 2 2 2 1 5 8 1 1 0 4 3 4 6 4 5 10 14 14 13 11
11 10 5 7 11 8 15 14 5 2 4 4 7 7 13 13 9 13 13 7 6 16 5 5 4 1 3 3 5 2 6 3 4 4 4 4 6 8 10 12 16 16 15 11 9
10 8 4 6 7 9 21 13 6 5 4 6 8 5 5 8 11 10 7 3 5 8 9 6 2 3 3 8 10 5 6 2 2 3 4 6 5 6 13 21 24 19 14 12 12
10 8 2 8 14 10 21 11 4 6 4 3 3 3 8 11 10 9 8 4 6 13 10 6 2 6 4 2 2 2 5 11 8 5 3 3 11 4 10 22 22 19 14 14 12
12 5 2 1 18 13 4 8 5 6 7 6 6 4 3 8 5 6 5 1 7 8 8 10 5 5 2 2 2 5 7 6 2 1 13 9 7 1 7 17 16 16 16 16 12
8 7 4 8 2 18 16 11 13 6 4 4 3 4 4 3 2 6 5 2 4 4 2 7 4 7 10 2 5 6 10 14 15 12 14 21 21 8 12 21 19 15 15 16 12
6 8 9 18 17 11 21 15 17 16 5 6 4 7 9 6 4 4 3 3 2 4 3 6 8 6 9 3 4 7 9 15 19 24 18 26 24 20 16 21 25 17 16 16 13
9 6 4 8 19 15 18 16 22 18 12 11 8 14 11 10 10 10 8 5 6 5 7 3 7 4 5 2 8 12 16 17 22 24 25 27 33 25 17 11 15 18 16 15 11
3 0 6 10 20 23 21 18 14 14 11 8 16 11 10 17 10 0 1 3 3 6 12 7 8 6 11 1 5 13 26 26 20 17 16 21 24 4 6 9 13 17 17 14 11
Wind_Direction
230 233 241 257 275 276 282 300 298 316 313 310 312 316 319 324 307 209 243 144 170 159 163 142 129 114 119 97 59 240 240 245 247 235 238 179 255 250 284 267 249 236 278 348 21
231 238 229 229 232 250 271 281 290 313 313 314 313 318 324 333 282 240 191 164 149 158 168 174 137 135 123 117 124 238 246 257 260 240 244 278 274 301 273 267 274 272 253 286 292
238 230 235 232 255 260 268 274 294 307 312 315 313 318 325 326 271 207 149 170 163 173 148 122 119 108 136 187 166 169 257 229 248 247 280 289 284 255 285 284 351 309 305 311 285
243 229 240 244 237 247 263 277 285 297 312 317 314 319 318 241 213 123 172 165 158 163 146 137 133 137 193 214 161 246 251 249 290 245 272 278 299 283 268 287 329 332 320 309 301
238 242 226 232 241 245 251 261 283 303 313 316 317 323 309 236 257 89 147 150 154 167 167 153 161 138 242 205 208 242 274 247 262 268 261 272 275 269 277 343 339 2 4 350 336
229 227 226 233 229 229 247 283 297 305 309 316 319 320 255 240 75 149 156 160 175 166 146 161 161 175 223 220 228 275 267 278 276 266 238 257 238 279 134 350 48 53 38 26 18
224 231 228 222 241 255 263 297 302 306 308 312 315 304 248 245 73 166 168 198 171 183 150 124 146 203 158 207 238 288 295 294 215 109 255 233 222 200 87 16 66 53 46 39 36
217 220 233 241 239 219 225 245 303 300 300 309 306 241 252 95 140 166 171 124 114 75 101 115 123 110 249 126 199 264 265 242 158 338 115 272 244 158 101 19 77 64 53 46 45
214 214 219 236 243 227 312 326 314 296 286 290 241 242 249 125 197 190 188 164 124 96 80 100 101 127 174 229 256 209 270 258 263 90 287 239 281 188 210 341 127 93 66 59 56
216 213 214 232 227 173 80 313 358 296 188 188 253 220 235 212 156 154 154 157 145 134 124 149 158 225 206 208 262 236 244 251 263 142 285 271 262 279 284 202 151 124 92 75 65
217 215 210 219 222 140 112 151 176 218 218 204 193 229 112 105 142 165 159 148 132 182 214 151 227 234 245 231 272 238 260 269 269 330 294 257 294 318 286 159 145 133 115 93 77
210 209 205 199 190 151 151 222 209 359 224 230 235 238 258 226 155 164 174 183 189 211 157 203 243 271 239 195 191 212 259 272 274 197 287 285 311 69 141 136 137 141 128 113 106
199 204 193 168 149 150 201 218 298 257 263 206 215 224 206 191 221 187 181 174 191 194 204 233 106 125 165 168 190 209 238 266 280 263 244 279 208 166 163 147 138 142 135 124 117
197 191 175 141 163 169 217 232 240 264 260 214 196 207 177 187 234 102 185 173 168 216 190 241 158 211 225 238 232 259 233 234 236 257 266 272 260 193 181 178 180 166 160 145 131
193 186 173 164 141 180 193 172 172 210 261 129 155 116 141 187 129 173 138 185 195 175 186 174 178 188 204 221 188 90 112 177 254 253 284 208 232 145 185 198 190 184 168 158 141
180 185 164 206 253 238 158 146 179 204 246 158 138 160 155 162 142 122 164 89 92 154 240 255 277 208 197 113 163 134 121 156 203 241 244 152 237 188 190 206 190 184 179 168 162
175 170 173 168 220 164 148 155 173 223 94 180 181 169 175 164 153 171 174 189 193 194 229 223 232 192 194 201 133 174 221 259 225 213 272 121 224 296 193 196 196 187 182 176 171
177 161 217 214 194 164 159 168 203 217 198 124 138 143 176 165 182 159 160 189 212 207 152 203 207 183 179 218 196 194 226 257 277 263 100 158 243 166 162 216 215 197 181 174 178
145 160 200 215 187 185 173 198 209 197 161 159 122 149 184 189 196 173 201 212 204 198 206 182 168 119 89 114 167 155 213 49 179 145 264 220 260 232 196 218 200 188 177 183 184
141 166 192 156 163 167 192 203 223 185 149 169 189 197 187 185 183 191 188 197 207 203 225 193 132 103 116 122 70 226 135 192 215 254 252 218 259 233 194 183 174 178 185 180 180
144 168 147 159 167 183 204 205 212 222 198 181 205 164 193 180 199 190 188 187 199 175 197 175 214 131 165 206 189 157 204 216 286 253 268 286 259 201 199 177 173 178 179 177 175
153 178 136 144 179 194 206 206 183 191 186 218 154 155 181 174 179 205 206 234 159 152 175 181 185 191 198 54 351 263 236 214 237 204 228 295 276 188 210 185 179 172 169 171 165
152 110 113 183 200 189 178 203 220 186 204 195 193 196 181 175 178 196 187 119 161 164 154 174 204 185 185 173 193 226 200 214 214 282 233 251 260 107 196 191 191 184 173 170 167
152 146 145 210 265 187 177 196 206 205 207 180 178 142 152 166 234 179 189 131 154 176 140 166 184 235 258 355 123 191 203 210 216 243 250 237 268 245 203 197 198 194 182 179 175
188 182 168 190 201 187 187 180 197 208 213 193 186 203 190 190 164 194 147 134 110 149 141 195 229 220 258 240 221 244 222 208 211 235 245 268 275 270 246 222 211 192 180 181 174
176 157 121 156 172 172 185 200 196 198 178 207 210 204 194 204 198 203 176 190 204 165 177 184 223 189 256 238 246 254 248 242 232 247 256 265 272 279 260 267 233 203 178 177 173
151 64 162 153 174 182 197 197 194 183 222 219 212 215 226 232 241 71 167 128 170 184 187 180 185 188 256 240 284 268 242 236 236 233 244 252 267 257 224 217 211 195 174 171 168